FW7384 Weather Reports


Display with metric or nautical units.
time (UTC)temp
F
wind
direction
speed
MPH
gust
MPH
rain 1hr
in
rain 24hr
in
rain mn
in
humidity
%
barometer
mb
20230201014004 36 257 3.0 5.0 0.00 0.00 0.00 88 993.5
20230201013504 36 245 2.0 5.0 0.00 0.00 0.00 88 993.5
20230201013004 36 251 2.0 5.0 0.00 0.00 0.00 88 993.5
20230201012504 36 250 3.0 4.0 0.00 0.00 0.00 88 993.5
20230201012004 36 248 2.0 5.0 0.00 0.00 0.00 88 993.5
20230201011504 36 258 1.0 5.0 0.00 0.00 0.00 88 993.5
20230201011004 36 264 1.0 6.0 0.00 0.00 0.00 88 993.5
20230201010504 36 259 0.0 6.0 0.00 0.00 0.00 88 993.5
20230201010004 36 258 3.0 6.0 0.00 0.00 0.00 88 993.5
20230201005504 36 259 1.0 4.0 0.00 0.00 0.00 88 993.5
20230201005004 36 252 2.0 8.0 0.00 0.00 0.00 88 993.5
20230201004504 36 249 2.0 8.0 0.00 0.00 0.00 88 993.5
20230201004004 36 254 4.0 10.0 0.00 0.00 0.00 88 993.5
20230201003504 37 256 2.0 10.0 0.00 0.00 0.00 87 993.5
20230201003004 37 252 3.0 7.0 0.00 0.00 0.00 88 993.5
20230201002717 37 253 4.0 10.0 0.00 0.00 0.00 88 993.5
20230201002215 37 254 5.0 10.0 0.00 0.00 0.00 88 993.5
20230201001504 37 248 6.0 10.0 0.00 0.00 0.00 88 993.5
20230201001004 37 253 5.0 16.0 0.00 0.00 0.00 89 993.5
20230201000504 37 266 2.0 16.0 0.00 0.00 0.00 89 993.5
20230201000004 37 280 1.0 8.0 0.00 0.00 0.00 90 993.5
20230131235503 37 260 2.0 8.0 0.00 0.00 0.00 90 993.5
20230131235004 37 251 3.0 6.0 0.00 0.00 0.00 90 993.5
20230131234504 37 263 3.0 7.0 0.00 0.00 0.00 90 993.5
20230131234214 37 263 1.0 7.0 0.00 0.00 0.00 90 993.5
20230131233504 37 252 3.0 7.0 0.00 0.00 0.00 90 993.5
20230131233004 37 246 3.0 5.0 0.00 0.00 0.00 90 993.5
20230131232504 37 245 0.0 8.0 0.00 0.00 0.00 90 993.5
20230131232003 37 250 2.0 8.0 0.00 0.00 0.00 90 993.5
20230131231504 37 254 4.0 5.0 0.00 0.00 0.00 90 993.5
20230131231004 37 255 3.0 6.0 0.00 0.00 0.00 90 993.5
20230131230715 37 255 3.0 6.0 0.00 0.00 0.00 90 993.5
20230131230004 37 249 3.0 7.0 0.00 0.00 0.00 90 993.5
20230131225504 37 252 4.0 9.0 0.00 0.00 0.00 90 992.5
20230131225003 37 256 2.0 9.0 0.00 0.00 0.00 90 992.5
20230131224717 37 258 4.0 6.0 0.00 0.00 0.00 90 992.5
20230131224004 37 263 2.0 7.0 0.00 0.00 0.00 90 992.5
20230131223504 37 261 2.0 7.0 0.00 0.00 0.00 91 992.5
20230131223004 37 247 3.0 7.0 0.00 0.00 0.00 91 992.5
20230131222504 37 246 0.0 6.0 0.00 0.00 0.00 91 993.5
20230131222217 37 250 3.0 6.0 0.00 0.00 0.00 91 993.5
20230131221504 37 263 2.0 11.0 0.00 0.00 0.00 91 993.5
20230131221213 37 267 4.0 11.0 0.00 0.00 0.00 91 993.5
20230131220504 37 264 2.0 8.0 0.00 0.00 0.00 91 992.5
20230131220004 37 262 2.0 8.0 0.00 0.00 0.00 91 992.5
20230131215717 37 263 2.0 8.0 0.00 0.00 0.00 91 992.5
20230131215004 37 252 4.0 6.0 0.00 0.00 0.00 91 992.5
20230131214504 37 259 3.0 11.0 0.00 0.00 0.00 91 992.5
20230131214003 37 266 2.0 11.0 0.00 0.00 0.00 91 992.5
20230131213503 37 268 4.0 8.0 0.00 0.00 0.00 92 992.5
20230131213004 37 258 1.0 5.0 0.00 0.00 0.00 92 992.5
20230131212504 37 255 3.0 5.0 0.00 0.00 0.00 92 993.5
20230131212217 37 259 4.0 5.0 0.00 0.00 0.00 92 993.5
20230131211504 37 255 2.0 7.0 0.00 0.00 0.00 92 993.5
20230131211003 37 259 1.0 8.0 0.00 0.00 0.00 92 992.5
20230131210504 37 268 4.0 8.0 0.00 0.00 0.00 92 992.5
20230131210003 37 266 4.0 8.0 0.00 0.00 0.00 94 992.5
20230131205504 37 270 2.0 10.0 0.00 0.00 0.00 94 993.5
20230131205215 37 268 2.0 10.0 0.00 0.00 0.00 94 993.5
20230131204503 37 259 1.0 5.0 0.00 0.00 0.00 94 993.5
20230131204004 37 259 4.0 7.0 0.00 0.00 0.00 94 993.5
20230131203503 38 256 1.0 7.0 0.00 0.00 0.00 94 993.5
20230131203003 38 255 3.0 9.0 0.00 0.00 0.00 94 993.5
20230131202504 38 256 3.0 9.0 0.00 0.00 0.00 94 993.5
20230131202003 38 259 2.0 6.0 0.00 0.00 0.00 94 993.5
20230131201504 38 267 1.0 6.0 0.00 0.00 0.00 95 993.5
20230131201003 38 269 2.0 7.0 0.00 0.00 0.00 95 993.5
20230131200504 38 264 3.0 7.0 0.00 0.00 0.00 95 993.5
20230131200215 38 261 4.0 7.0 0.00 0.00 0.00 95 993.5
20230131195503 38 258 2.0 6.0 0.00 0.00 0.00 95 993.5
20230131195003 38 246 3.0 6.0 0.00 0.00 0.00 95 993.5
20230131194504 38 247 2.0 6.0 0.00 0.00 0.00 95 993.5
20230131194003 38 251 4.0 6.0 0.00 0.00 0.00 95 993.5
20230131193715 38 254 1.0 8.0 0.00 0.00 0.00 95 993.5
20230131193213 38 258 1.0 8.0 0.00 0.00 0.00 95 993.5
20230131192716 38 257 3.0 8.0 0.00 0.00 0.00 95 993.5
20230131192004 38 248 3.0 6.0 0.00 0.00 0.00 95 992.5
20230131191717 38 252 4.0 6.0 0.00 0.00 0.00 95 992.5
20230131191003 38 251 2.0 6.0 0.00 0.00 0.00 96 993.5
20230131190503 37 256 1.0 6.0 0.00 0.00 0.00 96 993.5
20230131190003 37 256 2.0 6.0 0.00 0.00 0.00 95 993.5
20230131185503 37 251 3.0 7.0 0.00 0.00 0.00 95 992.5
20230131185003 37 256 0.0 8.0 0.00 0.00 0.00 95 992.5
20230131184503 37 258 0.0 8.0 0.00 0.00 0.00 95 992.5
20230131184003 37 256 2.0 6.0 0.00 0.00 0.00 95 992.5
20230131183503 37 257 3.0 5.0 0.00 0.00 0.00 95 992.5
20230131183003 37 255 2.0 6.0 0.00 0.00 0.00 95 992.5
20230131182503 37 249 4.0 6.0 0.00 0.00 0.00 95 993.5
20230131182003 36 248 4.0 6.0 0.00 0.00 0.00 95 993.5
20230131181503 36 249 2.0 6.0 0.00 0.00 0.00 95 993.5
20230131181003 36 250 3.0 5.0 0.00 0.00 0.00 95 993.5
20230131180713 36 252 3.0 5.0 0.00 0.00 0.00 95 993.5
20230131180004 36 254 3.0 5.0 0.00 0.00 0.00 95 993.5
20230131175503 36 250 0.0 3.0 0.00 0.00 0.00 95 993.5
20230131175217 36 262 1.0 8.0 0.00 0.00 0.00 95 993.5
20230131174503 36 252 2.0 8.0 0.00 0.00 0.00 95 993.5
20230131174004 35 245 3.0 4.0 0.00 0.00 0.00 94 993.5
20230131173716 35 242 0.0 4.0 0.00 0.00 0.00 94 993.5
20230131173214 35 248 2.0 3.0 0.00 0.00 0.00 94 993.5
20230131172717 35 216 0.0 3.0 0.00 0.00 0.00 94 993.5
20230131172003 35 222 1.0 4.0 0.00 0.00 0.00 94 993.5
20230131171713 35 232 3.0 6.0 0.00 0.00 0.00 94 993.5
20230131171216 35 222 0.0 6.0 0.00 0.00 0.00 94 993.5
20230131170503 35 206 1.0 6.0 0.00 0.00 0.00 94 993.5
20230131170003 35 201 1.0 4.0 0.00 0.00 0.00 94 993.5
20230131165503 35 205 1.0 4.0 0.00 0.00 0.00 94 993.5
20230131165003 35 208 2.0 4.0 0.00 0.00 0.00 94 993.5
20230131164503 35 198 2.0 7.0 0.00 0.00 0.00 94 993.5
20230131164004 35 195 3.0 7.0 0.00 0.00 0.00 94 993.5
20230131163503 35 192 0.0 4.0 0.00 0.00 0.00 94 993.5
20230131163003 35 196 3.0 4.0 0.00 0.00 0.00 94 993.5
20230131162503 36 207 3.0 4.0 0.00 0.00 0.00 94 993.5
20230131162003 36 205 2.0 4.0 0.00 0.00 0.00 94 993.5
20230131161503 35 180 0.0 5.0 0.00 0.00 0.00 94 993.5
20230131161003 35 164 1.0 5.0 0.00 0.00 0.00 94 993.5
20230131160503 35 165 3.0 7.0 0.00 0.00 0.00 94 993.5
20230131160003 35 162 3.0 7.0 0.00 0.00 0.00 92 993.5
20230131155503 35 143 3.0 6.0 0.00 0.00 0.00 92 994.5
20230131155003 35 138 4.0 6.0 0.00 0.00 0.00 92 994.5
20230131154503 35 147 3.0 7.0 0.00 0.00 0.00 92 994.5
20230131154003 35 169 4.0 7.0 0.00 0.00 0.00 92 994.5
20230131153504 35 178 0.0 4.0 0.00 0.00 0.00 92 994.5
20230131153215 35 174 2.0 4.0 0.00 0.00 0.00 91 994.5
20230131152503 35 166 2.0 4.0 0.00 0.00 0.00 91 994.5
20230131152004 35 177 2.0 4.0 0.00 0.00 0.00 91 994.5
20230131151504 35 178 1.0 4.0 0.00 0.00 0.00 91 994.5
20230131151005 35 176 2.0 4.0 0.00 0.00 0.00 91 996.6
20230131150504 35 182 2.0 6.0 0.00 0.00 0.00 91 996.6
20230131150004 35 185 4.0 6.0 0.00 0.00 0.00 91 996.6
20230131145504 35 187 4.0 5.0 0.00 0.00 0.00 90 995.5
20230131145004 35 205 0.0 7.0 0.00 0.00 0.00 90 995.5
20230131144504 35 202 2.0 7.0 0.00 0.00 0.00 90 995.5
20230131144004 35 193 5.0 7.0 0.00 0.00 0.00 90 995.5
20230131143504 35 184 2.0 4.0 0.00 0.00 0.00 89 995.5
20230131143004 35 186 2.0 4.0 0.00 0.00 0.00 89 995.5
20230131142504 35 195 0.0 4.0 0.00 0.00 0.00 89 996.6
20230131142004 35 198 2.0 6.0 0.00 0.00 0.00 88 996.6
20230131141504 35 195 2.0 6.0 0.00 0.00 0.00 88 996.6
20230131141004 35 195 1.0 4.0 0.00 0.00 0.00 88 997.6
20230131140716 35 195 3.0 4.0 0.00 0.00 0.00 88 997.6
20230131140004 35 208 0.0 6.0 0.00 0.00 0.00 87 997.6
20230131135504 35 207 3.0 7.0 0.00 0.00 0.00 87 996.6
20230131135004 36 206 1.0 8.0 0.00 0.00 0.00 87 996.6
20230131134717 36 208 3.0 8.0 0.00 0.00 0.00 87 996.6
20230131134004 36 209 4.0 8.0 0.00 0.00 0.00 87 997.6
20230131133713 36 215 4.0 8.0 0.00 0.00 0.00 87 997.6
20230131133004 36 216 5.0 8.0 0.00 0.00 0.00 87 997.6
20230131132504 36 223 3.0 8.0 0.00 0.00 0.00 87 998.6
20230131132004 36 222 4.0 7.0 0.00 0.00 0.00 87 998.6
20230131131504 36 215 3.0 7.0 0.00 0.00 0.00 87 998.6
20230131131004 36 217 4.0 7.0 0.00 0.00 0.00 87 998.6
20230131130504 36 216 4.0 9.0 0.00 0.00 0.00 87 998.6
20230131130214 36 212 4.0 9.0 0.00 0.00 0.00 87 998.6
20230131125717 36 218 5.0 9.0 0.00 0.00 0.00 88 998.6
20230131125004 36 216 4.0 8.0 0.00 0.00 0.00 89 999.6
20230131124713 36 215 4.0 8.0 0.00 0.00 0.00 89 999.6
20230131124004 36 231 4.0 6.0 0.00 0.00 0.00 90 999.6
20230131123504 36 232 4.0 6.0 0.00 0.00 0.00 90 999.6
20230131123004 36 222 4.0 8.0 0.00 0.00 0.00 90 999.6
20230131122504 36 217 4.0 8.0 0.00 0.00 0.00 90 999.6
20230131122004 35 219 6.0 8.0 0.00 0.00 0.00 90 999.6
20230131121504 35 225 4.0 6.0 0.00 0.00 0.00 90 999.6
20230131121004 35 227 4.0 6.0 0.00 0.00 0.00 90 1000.7
20230131120504 35 229 3.0 6.0 0.00 0.00 0.00 90 1000.7
20230131120004 35 234 3.0 6.0 0.00 0.00 0.00 90 1000.7
20230131115504 35 235 3.0 6.0 0.00 0.00 0.00 90 1001.7
20230131115003 34 234 3.0 6.0 0.00 0.00 0.00 90 1001.7
20230131114504 34 236 3.0 6.0 0.00 0.00 0.00 89 1001.7
20230131114004 34 229 2.0 5.0 0.00 0.00 0.00 89 1001.7
20230131113504 33 221 2.0 5.0 0.00 0.00 0.00 89 1001.7
20230131113004 33 220 4.0 5.0 0.00 0.00 0.00 88 1001.7
20230131112504 33 209 2.0 4.0 0.00 0.00 0.00 87 1001.7
20230131112003 33 216 1.0 4.0 0.00 0.00 0.00 86 1001.7
20230131111505 33 220 3.0 5.0 0.00 0.00 0.00 86 1001.7
20230131111003 33 221 3.0 5.0 0.00 0.00 0.00 86 1000.7
20230131110504 33 227 3.0 6.0 0.00 0.00 0.00 84 1000.7
20230131110004 33 229 3.0 6.0 0.00 0.00 0.00 84 1000.7
20230131105504 33 226 4.0 6.0 0.00 0.00 0.00 83 1001.7
20230131105004 32 231 4.0 6.0 0.00 0.00 0.00 81 1001.7
20230131104503 32 239 4.0 6.0 0.00 0.00 0.00 79 1001.7
20230131104003 32 235 4.0 6.0 0.00 0.00 0.00 78 1001.7
20230131103503 32 233 3.0 6.0 0.00 0.00 0.00 76 1001.7
20230131103004 32 230 4.0 6.0 0.00 0.00 0.00 75 1001.7
20230131102504 32 225 4.0 6.0 0.00 0.00 0.00 75 1002.7
20230131102004 32 231 3.0 6.0 0.00 0.00 0.00 75 1002.7
20230131101717 32 235 2.0 6.0 0.00 0.00 0.00 75 1002.7
20230131101004 32 224 3.0 6.0 0.00 0.00 0.00 75 1002.7
20230131100503 32 225 3.0 7.0 0.00 0.00 0.00 75 1002.7
20230131100003 32 223 3.0 7.0 0.00 0.00 0.00 74 1002.7
20230131095503 32 227 3.0 6.0 0.00 0.00 0.00 74 1002.7
20230131095003 32 233 4.0 6.0 0.00 0.00 0.00 75 1002.7
20230131094503 32 229 4.0 6.0 0.00 0.00 0.00 78 1002.7
20230131094003 32 230 4.0 6.0 0.00 0.00 0.00 79 1003.7
20230131093503 32 230 2.0 4.0 0.00 0.00 0.00 80 1003.7
20230131093004 31 217 2.0 4.0 0.00 0.00 0.00 81 1003.7
20230131092504 31 207 2.0 4.0 0.00 0.00 0.00 82 1003.7
20230131092003 31 208 2.0 4.0 0.00 0.00 0.00 82 1003.7
20230131091503 30 215 2.0 4.0 0.00 0.00 0.00 82 1003.7
20230131091004 30 217 2.0 3.0 0.00 0.00 0.00 83 1003.7
20230131090504 31 200 2.0 3.0 0.00 0.00 0.00 84 1003.7
20230131090003 30 179 0.0 2.0 0.00 0.00 0.00 86 1003.7
20230131085504 30 172 1.0 2.0 0.00 0.00 0.00 86 1002.7
20230131085003 29 157 0.0 2.0 0.00 0.00 0.00 84 1002.7
20230131084504 28 157 0.0 2.0 0.00 0.00 0.00 84 1002.7
20230131084003 27 137 2.0 2.0 0.00 0.00 0.00 83 1004.7
20230131083504 25 67 0.0 2.0 0.00 0.00 0.00 82 1004.7
20230131083004 24 67 0.0 2.0 0.00 0.00 0.00 80 1004.7
20230131082503 24 67 2.0 2.0 0.00 0.00 0.00 80 1004.7
20230131082003 23 67 0.0 2.0 0.00 0.00 0.00 80 1004.7
20230131081504 23 67 1.0 2.0 0.00 0.00 0.00 80 1004.7
20230131081003 23 67 0.0 2.0 0.00 0.00 0.00 80 1004.7
20230131080503 23 67 0.0 1.0 0.00 0.00 0.00 80 1004.7
20230131080003 23 67 0.0 1.0 0.00 0.00 0.00 80 1004.7
20230131075503 23 67 0.0 2.0 0.00 0.00 0.00 79 1004.7
20230131075004 23 67 0.0 2.0 0.00 0.00 0.00 79 1004.7
20230131074503 23 67 1.0 2.0 0.00 0.00 0.00 79 1004.7
20230131074003 23 67 2.0 2.0 0.00 0.00 0.00 79 1005.8
20230131073503 23 67 0.0 2.0 0.00 0.00 0.00 79 1005.8
20230131073003 23 67 0.0 2.0 0.00 0.00 0.00 79 1005.8
20230131072503 22 67 1.0 2.0 0.00 0.00 0.00 79 1005.8
20230131072003 22 67 1.0 2.0 0.00 0.00 0.00 79 1005.8
20230131071503 22 311 2.0 2.0 0.00 0.00 0.00 79 1005.8
20230131071003 22 287 0.0 2.0 0.00 0.00 0.00 79 1005.8
20230131070503 22 0 0.0 0.0 0.00 0.00 0.00 79 1005.8
20230131070003 22 0 0.0 0.0 0.00 0.00 0.00 79 1005.8
20230131065503 22 0 0.0 0.0 0.00 0.00 0.00 78 1006.8
20230131065003 22 0 0.0 0.0 0.00 0.00 0.00 78 1006.8
20230131064504 22 0 0.0 0.0 0.00 0.00 0.00 78 1006.8
20230131064003 22 0 0.0 0.0 0.00 0.00 0.00 78 1005.8
20230131063503 23 0 0.0 0.0 0.00 0.00 0.00 76 1005.8
20230131063004 23 0 0.0 0.0 0.00 0.00 0.00 76 1005.8
20230131062503 23 225 0.0 1.0 0.00 0.00 0.00 76 1005.8
20230131062003 24 225 0.0 1.0 0.00 0.00 0.00 76 1005.8
20230131061503 24 225 0.0 1.0 0.00 0.00 0.00 76 1005.8
20230131061003 24 0 0.0 0.0 0.00 0.00 0.00 75 1005.8
20230131060503 23 0 0.0 0.0 0.00 0.00 0.00 75 1005.8
20230131060003 24 0 0.0 0.0 0.00 0.00 0.00 75 1005.8
20230131055503 24 0 0.0 0.0 0.00 0.00 0.00 75 1005.8
20230131055003 24 0 0.0 0.0 0.00 0.00 0.00 75 1005.8
20230131054503 24 0 0.0 0.0 0.00 0.00 0.00 74 1005.8
20230131054003 24 0 0.0 0.0 0.00 0.00 0.00 74 1005.8
20230131053503 24 0 0.0 0.0 0.00 0.00 0.00 74 1005.8
20230131053216 25 225 0.0 1.0 0.00 0.00 0.00 74 1005.8
20230131052714 25 224 0.0 2.0 0.00 0.00 0.00 74 1005.8
20230131052003 25 224 2.0 3.0 0.00 0.00 0.00 74 1005.8
20230131051503 25 224 2.0 3.0 0.00 0.00 0.00 73 1005.8
20230131051003 25 225 1.0 2.0 0.00 0.00 0.00 73 1005.8
20230131050503 25 225 0.0 2.0 0.00 0.00 0.00 72 1005.8
20230131050214 25 225 0.0 2.0 0.00 0.00 0.00 73 1005.8
20230131045503 25 225 0.0 1.0 0.00 0.00 0.00 71 1005.8
20230131045215 25 225 0.0 2.0 0.00 0.00 0.00 71 1005.8
20230131044503 25 225 0.0 2.0 0.00 0.00 0.00 71 1005.8
20230131044003 25 225 2.0 2.0 0.00 0.00 0.00 70 1005.8
20230131043714 26 225 0.0 2.0 0.00 0.00 0.00 70 1005.8
20230131043003 26 238 0.0 3.0 0.00 0.00 0.00 69 1005.8
20230131042503 26 243 2.0 3.0 0.00 0.00 0.00 70 1004.7
20230131042004 26 247 2.0 4.0 0.00 0.00 0.00 69 1004.7
20230131041503 26 247 2.0 4.0 0.00 0.00 0.00 69 1004.7
20230131041003 26 247 2.0 3.0 0.00 0.00 0.00 68 1005.8
20230131040503 26 246 2.0 3.0 0.00 0.00 0.00 67 1005.8
20230131040003 26 246 3.0 3.0 0.00 0.00 0.00 66 1005.8
20230131035503 26 247 2.0 3.0 0.00 0.00 0.00 66 1005.8
20230131035003 26 247 2.0 2.0 0.00 0.00 0.00 66 1005.8
20230131034504 27 255 1.0 3.0 0.00 0.00 0.00 66 1005.8
20230131034004 27 286 2.0 3.0 0.00 0.00 0.00 66 1004.7
20230131033504 26 315 2.0 3.0 0.00 0.00 0.00 66 1004.7
20230131033004 26 315 1.0 2.0 0.00 0.00 0.00 65 1004.7
20230131032716 26 315 1.0 2.0 0.00 0.00 0.00 65 1004.7
20230131032004 27 300 2.0 4.0 0.00 0.00 0.00 64 1004.7
20230131031505 27 307 3.0 4.0 0.00 0.00 0.00 64 1004.7
20230131031004 27 316 3.0 4.0 0.00 0.00 0.00 65 1005.8
20230131030504 26 325 3.0 4.0 0.00 0.00 0.00 65 1005.8
20230131030004 26 342 3.0 4.0 0.00 0.00 0.00 65 1005.8
20230131025504 26 325 3.0 4.0 0.00 0.00 0.00 66 1005.8
20230131025004 26 283 2.0 4.0 0.00 0.00 0.00 65 1005.8
20230131024504 26 255 0.0 2.0 0.00 0.00 0.00 65 1005.8
20230131024004 26 264 1.0 3.0 0.00 0.00 0.00 64 1005.8
20230131023504 26 288 1.0 3.0 0.00 0.00 0.00 64 1005.8
20230131023004 25 290 1.0 3.0 0.00 0.00 0.00 63 1005.8
20230131022716 26 292 0.0 3.0 0.00 0.00 0.00 63 1005.8
20230131022004 26 292 2.0 3.0 0.00 0.00 0.00 63 1005.8
20230131021717 26 292 1.0 3.0 0.00 0.00 0.00 62 1005.8
20230131021004 26 295 0.0 3.0 0.00 0.00 0.00 61 1005.8
20230131020504 26 100 2.0 3.0 0.00 0.00 0.00 61 1005.8
20230131020004 26 101 1.0 2.0 0.00 0.00 0.00 60 1005.8
20230131015504 27 7 0.0 3.0 0.00 0.00 0.00 60 1005.8
20230131015004 27 165 1.0 3.0 0.00 0.00 0.00 60 1005.8
20230131014504 27 234 0.0 4.0 0.00 0.00 0.00 60 1005.8